FW2972 Weather Reports


Display with metric or nautical units.
time (UTC)temp
F
wind
direction
speed
MPH
gust
MPH
rain 1hr
in
rain 24hr
in
rain mn
in
humidity
%
barometer
mb
20260906152337 88 197 1.0 3.0 0.00 0.00 0.00 82 1015.4
20260906151836 91 250 2.0 5.0 0.00 0.00 0.00 79 1015.2
20260906151332 90 28 0.0 2.0 0.00 0.00 0.00 82 1015.2
20260906150828 87 0 0.0 1.0 0.00 0.00 0.00 87 1015.0
20260906150323 87 142 2.0 2.0 0.00 0.00 0.00 87 1015.2
20260906145822 87 257 0.0 3.0 0.00 0.00 0.00 87 1015.2
20260906145320 87 230 0.0 2.0 0.00 0.00 0.00 86 1015.2
20260906144816 88 255 0.0 2.0 0.00 0.00 0.00 86 1015.0
20260906144311 88 242 0.0 2.0 0.00 0.00 0.00 85 1015.0
20260906143810 88 343 0.0 1.0 0.00 0.00 0.00 84 1015.1
20260906143307 88 304 0.0 3.0 0.00 0.00 0.00 83 1015.2
20260906142802 89 267 3.0 4.0 0.00 0.00 0.00 83 1015.1
20260906142257 89 288 2.0 3.0 0.00 0.00 0.00 83 1015.2
20260906141756 91 246 0.0 0.0 0.00 0.00 0.00 82 1015.1
20260906141251 89 196 0.0 3.0 0.00 0.00 0.00 84 1015.3
20260906140750 90 269 0.0 1.0 0.00 0.00 0.00 83 1015.1
20260906140245 88 309 0.0 1.0 0.00 0.00 0.00 85 1015.1
20260906135742 88 230 0.0 3.0 0.00 0.00 0.00 84 1014.9
20260906135238 87 241 1.0 2.0 0.00 0.00 0.00 86 1015.2
20260906134734 87 226 2.0 2.0 0.00 0.00 0.00 85 1015.0
20260906134229 88 217 0.0 1.0 0.00 0.00 0.00 85 1015.1
20260906133724 87 135 0.0 2.0 0.00 0.00 0.00 87 1014.9
20260906133220 87 92 0.0 3.0 0.00 0.00 0.00 87 1014.9
20260906132715 87 113 0.0 3.0 0.00 0.00 0.00 88 1015.0
20260906132210 85 224 0.0 1.0 0.00 0.00 0.00 91 1014.9
20260906131706 85 242 0.0 1.0 0.00 0.00 0.00 91 1014.8
20260906131201 85 212 0.0 1.0 0.00 0.00 0.00 91 1014.4
20260906130656 84 217 0.0 1.0 0.00 0.00 0.00 92 1014.6
20260906130151 84 113 0.0 0.0 0.00 0.00 0.00 94 1014.4
20260906125649 82 113 0.0 1.0 0.00 0.00 0.00 98 1014.6
20260906125148 81 134 0.0 2.0 0.00 0.00 0.00 99 1014.4
20260906124643 80 233 0.0 0.0 0.00 0.00 0.00 99 1014.3
20260906124139 78 233 0.0 1.0 0.00 0.00 0.00 99 1014.2
20260906123637 78 297 0.0 0.0 0.00 0.00 0.00 99 1014.2
20260906123133 78 297 0.0 1.0 0.00 0.00 0.00 99 1014.0
20260906122632 78 220 0.0 1.0 0.00 0.00 0.00 99 1014.3
20260906122128 78 269 0.0 1.0 0.00 0.00 0.00 99 1014.2
20260906121624 77 184 0.0 1.0 0.00 0.00 0.00 99 1014.0
20260906121120 77 129 0.0 0.0 0.00 0.00 0.00 99 1014.0
20260906120615 77 129 0.0 0.0 0.00 0.00 0.00 99 1013.8
20260906120113 77 176 0.0 0.0 0.00 0.00 0.00 99 1013.9
20260906115613 77 217 0.0 0.0 0.00 0.00 0.00 99 1013.9
20260906115108 77 199 0.0 2.0 0.00 0.00 0.00 99 1013.8
20260906114602 77 180 0.0 1.0 0.00 0.00 0.00 99 1013.6
20260906114057 77 180 0.0 0.0 0.00 0.00 0.00 99 1013.8
20260906113556 77 190 0.0 2.0 0.00 0.00 0.00 99 1013.7
20260906113052 77 89 0.0 1.0 0.00 0.00 0.00 99 1013.6
20260906112546 77 230 0.0 1.0 0.00 0.00 0.00 99 1013.5
20260906112043 78 343 0.0 0.0 0.00 0.00 0.00 99 1013.6
20260906111542 78 89 0.0 0.0 0.00 0.00 0.00 99 1013.5
20260906111037 78 89 0.0 0.0 0.00 0.00 0.00 99 1013.6
20260906110537 78 75 0.0 1.0 0.00 0.00 0.00 99 1013.5
20260906110036 78 157 0.0 1.0 0.00 0.00 0.00 99 1013.5
20260906105532 78 212 0.0 1.0 0.00 0.00 0.00 99 1013.7
20260906105028 78 217 0.0 0.0 0.00 0.00 0.00 99 1013.4
20260906104526 78 230 0.0 1.0 0.00 0.00 0.00 99 1013.3
20260906104021 78 196 0.0 2.0 0.00 0.00 0.00 99 1013.3
20260906103519 78 199 1.0 1.0 0.00 0.00 0.00 99 1013.4
20260906103015 78 141 0.0 1.0 0.00 0.00 0.00 99 1013.2
20260906102514 78 151 0.0 2.0 0.00 0.00 0.00 99 1013.4
20260906102009 78 217 0.0 0.0 0.00 0.00 0.00 99 1013.1
20260906101504 78 190 0.0 1.0 0.00 0.00 0.00 99 1013.5
20260906100959 78 230 0.0 0.0 0.00 0.00 0.00 99 1013.2
20260906100454 78 297 0.0 1.0 0.00 0.00 0.00 99 1013.1
20260906095948 78 154 0.0 0.0 0.00 0.00 0.00 99 1013.1
20260906095443 78 154 0.0 1.0 0.00 0.00 0.00 99 1013.4
20260906094938 78 154 0.0 0.0 0.00 0.00 0.00 99 1013.0
20260906094432 79 150 0.0 1.0 0.00 0.00 0.00 99 1013.3
20260906093928 78 199 0.0 0.0 0.00 0.00 0.00 99 1013.3
20260906093424 79 157 0.0 2.0 0.00 0.00 0.00 99 1013.1
20260906092919 79 229 0.0 2.0 0.00 0.00 0.00 99 1013.1
20260906092418 79 214 0.0 1.0 0.00 0.00 0.00 99 1013.0
20260906091914 79 157 0.0 0.0 0.00 0.00 0.00 99 1013.1
20260906091410 79 315 0.0 1.0 0.00 0.00 0.00 99 1013.1
20260906090906 79 142 0.0 1.0 0.00 0.00 0.00 99 1013.0
20260906090406 79 164 0.0 1.0 0.00 0.00 0.00 99 1013.2
20260906085901 79 154 0.0 1.0 0.00 0.00 0.00 99 1013.0
20260906085400 79 195 0.0 0.0 0.00 0.00 0.00 99 1013.2
20260906084900 79 195 0.0 0.0 0.00 0.00 0.00 99 1012.8
20260906084354 79 195 0.0 1.0 0.00 0.00 0.00 99 1013.1
20260906083848 79 154 0.0 0.0 0.00 0.00 0.00 99 1012.9
20260906083344 79 154 0.0 0.0 0.00 0.00 0.00 99 1012.8
20260906082843 79 154 0.0 0.0 0.00 0.00 0.00 99 1013.0
20260906082338 79 154 0.0 0.0 0.00 0.00 0.00 99 1013.0
20260906081835 79 154 0.0 0.0 0.00 0.00 0.00 99 1013.0
20260906081330 79 164 0.0 1.0 0.00 0.00 0.00 99 1013.2
20260906080826 79 154 0.0 0.0 0.00 0.00 0.00 99 1013.2
20260906080322 79 154 0.0 0.0 0.00 0.00 0.00 99 1013.1
20260906075821 79 217 0.0 0.0 0.00 0.00 0.00 99 1013.3
20260906075316 79 217 0.0 0.0 0.00 0.00 0.00 99 1013.1
20260906074811 79 217 0.0 0.0 0.00 0.00 0.00 99 1013.1
20260906074311 79 212 0.0 0.0 0.00 0.00 0.00 99 1013.2
20260906073810 80 212 0.0 0.0 0.00 0.00 0.00 99 1012.9
20260906073305 80 225 0.0 1.0 0.00 0.00 0.00 99 1013.2
20260906072801 80 240 0.0 0.0 0.00 0.00 0.00 99 1013.4
20260906072257 80 240 0.0 0.0 0.00 0.00 0.00 99 1013.1
20260906071752 80 240 0.0 0.0 0.00 0.00 0.00 99 1013.2
20260906071252 80 240 0.0 0.0 0.00 0.00 0.00 99 1013.0
20260906070749 80 240 0.0 0.0 0.00 0.00 0.00 99 1013.3
20260906070244 80 240 0.0 0.0 0.00 0.00 0.00 98 1013.4
20260906065744 80 238 0.0 1.0 0.00 0.00 0.00 98 1013.4
20260906065239 80 217 0.0 0.0 0.00 0.00 0.00 98 1013.4
20260906064735 80 217 0.0 0.0 0.00 0.00 0.00 98 1013.4
20260906064230 80 205 0.0 0.0 0.00 0.00 0.00 98 1013.2
20260906063725 80 205 0.0 0.0 0.00 0.00 0.00 98 1013.4
20260906063221 80 205 0.0 0.0 0.00 0.00 0.00 98 1013.4
20260906062716 80 217 0.0 1.0 0.00 0.00 0.00 98 1013.3
20260906062215 80 205 0.0 0.0 0.00 0.00 0.00 98 1013.5
20260906061711 80 205 0.0 0.0 0.00 0.00 0.00 98 1013.3
20260906061207 80 205 0.0 0.0 0.00 0.00 0.00 97 1013.4
20260906060703 80 205 0.0 0.0 0.00 0.00 0.00 97 1013.3
20260906060200 80 230 0.0 0.0 0.00 0.00 0.00 97 1013.3
20260906055655 80 230 0.0 1.0 0.00 0.00 0.00 97 1013.4
20260906055150 80 246 0.0 0.0 0.00 0.00 0.00 97 1013.5
20260906054646 80 246 0.0 0.0 0.00 0.00 0.00 97 1013.3
20260906054140 80 269 0.0 2.0 0.00 0.00 0.00 97 1013.1
20260906053638 80 212 0.0 1.0 0.00 0.00 0.00 98 1013.2
20260906053138 80 230 0.0 1.0 0.00 0.00 0.00 99 1013.5
20260906052633 80 232 0.0 1.0 0.00 0.00 0.00 99 1013.3
20260906052130 80 217 0.0 0.0 0.00 0.00 0.00 99 1013.5
20260906051626 80 217 0.0 0.0 0.00 0.00 0.00 99 1013.3
20260906051126 80 205 0.0 1.0 0.00 0.00 0.00 99 1013.3
20260906050621 80 205 0.0 1.0 0.00 0.00 0.00 99 1013.5
20260906050116 80 230 0.0 2.0 0.00 0.49 0.49 99 1013.3
20260906045614 80 204 0.0 1.0 0.00 0.49 0.49 99 1013.5
20260906045110 80 129 0.0 1.0 0.00 0.49 0.49 99 1013.3
20260906044606 80 205 0.0 0.0 0.00 0.49 0.49 99 1013.3
20260906044101 80 218 1.0 2.0 0.00 0.49 0.49 99 1013.2
20260906043557 81 227 0.0 2.0 0.00 0.49 0.49 99 1013.2
20260906043052 81 205 0.0 1.0 0.00 0.49 0.49 99 1013.6
20260906042551 81 212 0.0 1.0 0.00 0.49 0.49 99 1013.6
20260906042046 81 230 0.0 1.0 0.00 0.49 0.49 99 1013.7
20260906041543 81 205 0.0 0.0 0.00 0.49 0.49 98 1013.5
20260906041037 81 205 0.0 2.0 0.00 0.49 0.49 98 1013.5
20260906040532 81 207 0.0 1.0 0.00 0.49 0.49 98 1013.5
20260906040028 81 134 0.0 2.0 0.00 0.49 0.49 98 1013.4
20260906035522 81 144 1.0 2.0 0.00 0.49 0.49 98 1013.5
20260906035019 81 182 0.0 2.0 0.00 0.49 0.49 98 1013.6
20260906034518 81 113 0.0 1.0 0.00 0.49 0.49 98 1013.4
20260906034014 81 135 0.0 0.0 0.00 0.49 0.49 98 1013.5
20260906033508 81 129 0.0 2.0 0.00 0.49 0.49 98 1013.5
20260906033004 81 149 0.0 1.0 0.00 0.49 0.49 98 1013.8
20260906032455 81 147 0.0 2.0 0.00 0.49 0.49 98 1013.7
20260906031954 81 166 0.0 2.0 0.00 0.49 0.49 98 1013.5
20260906031450 81 141 0.0 4.0 0.00 0.49 0.49 98 1013.6
20260906030945 82 184 0.0 3.0 0.00 0.49 0.49 98 1013.6
20260906030440 82 174 2.0 3.0 0.00 0.49 0.49 98 1013.6
20260906025940 82 119 2.0 3.0 0.00 0.49 0.49 98 1013.7
20260906025434 82 139 0.0 3.0 0.00 0.49 0.49 98 1013.3
20260906024933 82 121 0.0 3.0 0.00 0.49 0.49 98 1013.4
20260906024432 82 212 0.0 1.0 0.00 0.49 0.49 98 1013.5
20260906023933 82 162 1.0 2.0 0.00 0.49 0.49 98 1013.4
20260906023429 82 121 2.0 3.0 0.00 0.49 0.49 98 1013.1
20260906022924 82 222 1.0 2.0 0.00 0.49 0.49 98 1013.2
20260906022419 82 153 1.0 4.0 0.00 0.49 0.49 98 1013.3
20260906021915 82 135 0.0 1.0 0.00 0.49 0.49 98 1013.1
20260906021414 82 194 0.0 1.0 0.00 0.49 0.49 97 1012.8
20260906020908 82 135 0.0 1.0 0.00 0.49 0.49 97 1013.0
20260906020403 82 224 0.0 1.0 0.00 0.49 0.49 97 1012.8
20260906015857 82 154 0.0 1.0 0.00 0.49 0.49 97 1013.0
20260906015357 82 157 0.0 0.0 0.00 0.49 0.49 96 1012.9
20260906014857 82 127 0.0 2.0 0.00 0.49 0.49 96 1012.7
20260906014356 82 135 0.0 2.0 0.00 0.49 0.49 96 1012.7
20260906013853 82 249 0.0 2.0 0.00 0.49 0.49 95 1012.6
20260906013348 82 283 0.0 2.0 0.00 0.49 0.49 95 1012.6
20260906012844 82 75 0.0 1.0 0.00 0.49 0.49 95 1012.4
20260906012339 83 185 0.0 3.0 0.00 0.49 0.49 94 1012.3
20260906011838 83 208 0.0 3.0 0.00 0.49 0.49 93 1012.4
20260906011333 83 142 2.0 4.0 0.00 0.49 0.49 92 1012.5
20260906010829 84 147 0.0 3.0 0.00 0.49 0.49 91 1012.5
20260906010325 84 230 0.0 2.0 0.00 0.49 0.49 90 1012.4
20260906005820 84 161 1.0 5.0 0.00 0.49 0.49 90 1012.5
20260906005319 84 131 3.0 4.0 0.00 0.49 0.49 90 1012.5
20260906004818 84 193 1.0 3.0 0.00 0.49 0.49 90 1012.3
20260906004318 84 162 3.0 4.0 0.00 0.49 0.49 89 1012.6
20260906003813 84 154 2.0 3.0 0.00 0.49 0.49 89 1012.4
20260906003309 84 116 2.0 5.0 0.00 0.49 0.49 89 1012.5
20260906002804 84 149 3.0 4.0 0.00 0.49 0.49 89 1012.5
20260906002306 85 151 1.0 4.0 0.00 0.49 0.49 89 1012.6
20260906001800 85 187 0.0 4.0 0.00 0.49 0.49 89 1012.5
20260906001254 85 143 3.0 4.0 0.00 0.49 0.49 89 1012.7
20260906000749 85 128 1.0 6.0 0.00 0.49 0.49 88 1012.9
20260906000244 85 161 2.0 6.0 0.00 0.49 0.49 89 1013.0
20260905235739 85 173 0.0 3.0 0.00 0.49 0.49 88 1013.1
20260905235238 86 172 2.0 2.0 0.00 0.49 0.49 88 1013.1
20260905234734 85 145 1.0 4.0 0.00 0.49 0.49 88 1013.0
20260905234229 86 224 0.0 6.0 0.00 0.49 0.49 87 1013.1
20260905233725 86 165 1.0 2.0 0.00 0.49 0.49 87 1012.9
20260905233224 86 146 1.0 4.0 0.00 0.49 0.49 87 1013.0
20260905232719 86 172 1.0 3.0 0.00 0.49 0.49 87 1012.9
20260905232214 86 153 2.0 5.0 0.00 0.49 0.49 86 1012.9
20260905231710 86 176 0.0 6.0 0.00 0.49 0.49 86 1012.6
20260905231206 86 134 2.0 5.0 0.00 0.49 0.49 85 1012.6
20260905230702 86 200 0.0 7.0 0.00 0.49 0.49 85 1012.7
20260905230159 86 122 2.0 7.0 0.00 0.49 0.49 85 1012.7
20260905225659 86 97 2.0 6.0 0.00 0.49 0.49 85 1012.9
20260905225154 86 80 2.0 6.0 0.00 0.49 0.49 85 1012.7
20260905224653 86 138 1.0 5.0 0.00 0.49 0.49 85 1012.6
20260905224148 87 151 2.0 7.0 0.00 0.49 0.49 84 1012.8
20260905223645 87 109 2.0 5.0 0.00 0.49 0.49 84 1012.8
20260905223141 87 145 2.0 5.0 0.00 0.49 0.49 83 1012.8
20260905222637 87 157 0.0 5.0 0.00 0.49 0.49 83 1012.6
20260905222131 87 69 0.0 6.0 0.00 0.49 0.49 83 1012.6
20260905221627 87 246 0.0 3.0 0.00 0.49 0.49 85 1012.6
20260905221124 87 173 2.0 5.0 0.00 0.49 0.49 84 1012.8
20260905220619 87 116 2.0 5.0 0.00 0.49 0.49 84 1012.6
20260905220115 87 244 0.0 6.0 0.00 0.49 0.49 84 1012.7
20260905215614 87 171 2.0 8.0 0.00 0.49 0.49 82 1012.7
20260905215110 88 153 3.0 7.0 0.00 0.49 0.49 80 1012.6
20260905214606 88 169 2.0 6.0 0.00 0.49 0.49 80 1012.8
20260905214106 89 138 3.0 6.0 0.00 0.49 0.49 76 1012.6
20260905213601 90 133 2.0 4.0 0.00 0.49 0.49 71 1012.7
20260905213056 90 166 0.0 3.0 0.00 0.49 0.49 70 1013.0
20260905212551 90 159 1.0 2.0 0.00 0.49 0.49 71 1012.7
20260905212050 90 244 3.0 3.0 0.00 0.49 0.49 68 1012.8
20260905211546 91 237 0.0 3.0 0.00 0.49 0.49 72 1012.7
20260905211041 91 211 2.0 5.0 0.00 0.49 0.49 71 1012.6
20260905210537 91 128 2.0 3.0 0.00 0.49 0.49 70 1012.8
20260905210032 90 228 0.0 3.0 0.00 0.49 0.49 74 1012.9
20260905205531 90 175 0.0 6.0 0.00 0.49 0.49 75 1012.9
20260905205030 91 180 0.0 2.0 0.00 0.49 0.49 69 1012.9
20260905204526 91 256 1.0 2.0 0.00 0.49 0.49 70 1013.0
20260905204021 91 257 1.0 4.0 0.00 0.49 0.49 71 1013.0
20260905203520 90 171 1.0 3.0 0.00 0.49 0.49 72 1013.2
20260905203016 90 153 2.0 6.0 0.00 0.49 0.49 75 1013.1
20260905202511 90 227 0.0 3.0 0.00 0.49 0.49 75 1013.5
20260905202006 90 215 1.0 5.0 0.00 0.49 0.49 76 1013.3
20260905201502 90 199 0.0 2.0 0.00 0.49 0.49 78 1013.5
20260905201001 89 197 0.0 2.0 0.00 0.49 0.49 82 1013.5
20260905200457 88 246 0.0 3.0 0.00 0.49 0.49 83 1013.4
20260905195955 87 120 3.0 5.0 0.00 0.49 0.49 81 1013.5
20260905195451 87 230 1.0 4.0 0.00 0.49 0.49 84 1013.3
20260905194946 87 215 2.0 4.0 0.00 0.49 0.49 83 1013.5
20260905194446 87 234 1.0 2.0 0.00 0.49 0.49 86 1013.4
20260905193940 87 135 0.0 4.0 0.00 0.49 0.49 86 1013.6
20260905193435 87 101 1.0 3.0 0.00 0.49 0.49 85 1013.5
20260905192930 87 147 0.0 3.0 0.00 0.49 0.49 87 1013.6
20260905192425 86 185 1.0 6.0 0.00 0.49 0.49 89 1013.8
20260905191920 82 171 1.0 3.0 0.00 0.49 0.49 99 1013.8
20260905191419 82 186 0.0 1.0 0.00 0.49 0.49 99 1014.0
20260905190914 80 150 1.0 3.0 0.00 0.49 0.49 99 1014.2
20260905190411 80 126 0.0 1.0 0.00 0.49 0.49 99 1014.3
20260905185910 79 138 1.0 3.0 0.00 0.49 0.49 99 1014.0
20260905185406 80 129 0.0 2.0 0.00 0.49 0.49 99 1014.1
20260905184904 80 256 0.0 3.0 0.00 0.49 0.49 99 1014.1
20260905184359 83 68 0.0 2.0 0.00 0.49 0.49 99 1014.4
20260905183857 81 326 0.0 2.0 0.00 0.49 0.49 99 1014.6
20260905183353 82 255 0.0 1.0 0.00 0.49 0.49 99 1014.6
20260905182848 81 230 0.0 2.0 0.00 0.49 0.49 99 1014.5
20260905182347 80 184 1.0 2.0 0.00 0.49 0.49 99 1014.7
20260905181843 81 89 0.0 2.0 0.00 0.49 0.49 99 1014.6
20260905181343 81 235 0.0 3.0 0.00 0.49 0.49 99 1014.7
20260905180841 80 103 0.0 2.0 0.00 0.49 0.49 99 1014.7
20260905180336 78 59 1.0 2.0 0.00 0.49 0.49 99 1014.8
20260905175832 78 210 0.0 1.0 0.00 0.49 0.49 99 1015.0
20260905175331 77 89 0.0 0.0 0.00 0.49 0.49 99 1015.0
20260905174827 77 224 0.0 2.0 0.00 0.49 0.49 99 1015.4
20260905174323 76 160 0.0 3.0 0.00 0.49 0.49 99 1015.3
20260905173818 76 197 0.0 4.0 0.05 0.49 0.49 99 1015.3
20260905173314 76 148 1.0 4.0 0.14 0.48 0.48 99 1015.6
20260905172814 75 204 1.0 3.0 0.31 0.48 0.48 99 1015.5
20260905172312 75 147 3.0 6.0 0.57 0.46 0.46 99 1015.8
20260905171809 76 148 2.0 6.0 0.57 0.42 0.42 99 1015.7
20260905171305 76 132 6.0 13.0 0.33 0.35 0.35 99 1015.9
20260905170801 77 140 3.0 9.0 0.14 0.31 0.31 99 1015.9
20260905170257 78 134 3.0 3.0 0.14 0.29 0.29 99 1016.0
20260905165755 78 143 7.0 9.0 0.35 0.28 0.28 99 1015.9
20260905165252 79 147 2.0 3.0 0.59 0.26 0.26 99 1015.8
20260905164751 79 201 2.0 3.0 0.64 0.22 0.22 99 1015.6
20260905164246 79 190 2.0 6.0 0.47 0.16 0.16 97 1015.5
20260905163742 83 135 4.0 8.0 0.12 0.10 0.10 94 1015.5
20260905163238 84 213 0.0 2.0 0.14 0.08 0.08 91 1015.4
20260905162734 84 141 1.0 5.0 0.47 0.08 0.08 88 1015.5
20260905162233 87 217 0.0 1.0 0.31 0.05 0.05 86 1015.5
20260905161728 88 268 3.0 4.0 0.00 0.00 0.00 79 1015.4
20260905161227 88 313 0.0 4.0 0.00 0.00 0.00 79 1015.3
20260905160725 89 336 0.0 5.0 0.00 0.00 0.00 76 1015.6
20260905160220 91 331 0.0 4.0 0.00 0.00 0.00 73 1015.5
20260905155714 90 280 3.0 8.0 0.00 0.00 0.00 74 1015.3
20260905155213 90 257 0.0 6.0 0.00 0.00 0.00 76 1015.5
20260905154707 91 280 2.0 5.0 0.00 0.00 0.00 76 1015.4
20260905154203 89 269 0.0 2.0 0.00 0.00 0.00 79 1015.2
20260905153659 90 269 0.0 2.0 0.00 0.00 0.00 78 1015.2
20260905153154 90 326 0.0 0.0 0.00 0.00 0.00 78 1015.4